Location: Namasale
(1.5000°N, 32.6167°E)
Time: 08:38:47
(UTC+00:00)

Vanguard 1 Rocket - Pass Details

Date: 23 April 2021
Orbit: 652 x 4225 km, 34.3° (Epoch: 15 May)

Event Time Altitude Azimuth Distance (km) Brightness Sun altitude
Rises 03:42:09 0° 224° (SW) 8,444 11.8 -1.1°
Reaches altitude 10° 03:49:01 10° 217° (SW) 7,422 11.6 0.6°
Maximum altitude 04:11:51 41° 153° (SSE) 4,328 11.1 6.2°
Drops below altitude 10° 04:26:18 10° 87° (E) 4,935 13.6 9.7°
Sets 04:29:39 0° 80° (E) 5,529 13.7 10.5°
